Simultaneous Nadir Overpasses (SNOs) Predictions

Prediction of SNOs between NOAA-20 and AQUA Satellite Orbit:

Table of predicted SNOs for the next 14.0 days since TLE Epoch: 6/16/2022
Index Date (NOAA-20) Time (NOAA-20) Lat,Lon (NOAA-20) SZA (NOAA-20 ) Date (AQUA) Time (AQUA) Lat,Lon (AQUA) SZA (AQUA ) Distance(km) Time Diff (sec)
1 06/16/2022 13:45:14 -78.21, 41.95 108.52 06/16/2022 13:45:50 -78.20, 41.85 108.52 2.39 36
2 06/16/2022 14:35:48 78.61,-148.45 70.91 06/16/2022 14:35:06 78.61,-148.43 70.93 0.51 42
3 06/19/2022 05:11:29 77.93, -11.04 71.84 06/19/2022 05:12:28 77.93, -11.05 71.80 0.31 59
4 06/19/2022 06:02:02 -78.44, 159.03 108.89 06/19/2022 06:01:43 -78.44, 159.07 108.88 1.06 19
5 06/21/2022 21:28:12 78.36, 107.05 71.24 06/21/2022 21:28:16 78.37, 107.06 71.23 0.51 4
6 06/21/2022 22:18:47 -78.77, -83.16 109.38 06/21/2022 22:17:33 -78.78, -83.10 109.33 1.41 74
7 06/24/2022 12:54:26 -78.19, 54.56 108.46 06/24/2022 12:54:52 -78.20, 54.60 108.49 1.09 26
8 06/24/2022 13:44:54 78.81,-134.49 70.64 06/24/2022 13:44:03 78.80,-134.57 70.69 1.95 51
9 06/27/2022 04:20:36 78.06, 2.31 71.84 06/27/2022 04:21:24 78.06, 2.36 71.80 1.15 48
10 06/27/2022 05:11:09 -78.57, 172.47 108.90 06/27/2022 05:10:39 -78.57, 172.55 108.89 1.91 30
11 06/29/2022 19:46:50 -77.88, -50.14 107.76 06/29/2022 19:47:59 -77.89, -50.06 107.83 1.87 69



Historial Predications of SNOs between NOAA-20 and AQUA
